Regional Weather Roundup
Issued by NWS Sterling, VA

Home | Current Version | Previous Version | Text Only | Print | Product List | Glossary On
Versions: 1 2 3 4 5 6 7 8 9 10 11 12 13 14 15 16 17 18 19 20 21 22 23 24 25 26 27 28 29 30 31 32 33 34 35 36 37 38 39 40 41 42 43 44 45 46 47 48 49 50
000
ASUS41 KLWX 201110
RWRLWX

REGIONAL WEATHER ROUNDUP
NATIONAL WEATHER SERVICE BALTIMORE MD/WASHINGTON DC
600 AM EST FRI JAN 20 2017

Note: "FAIR" indicates few or no clouds below 12,000 feet
with no significant weather and/or obstructions to visibility.
 TC=TEMPERATURE CELSIUS

 * =Non NWS site. Station does not report precipitation (e.g. rain,
    snow, etc.), thunder, or fog.

DCZ001-MDZ009-015-VAZ040>042-051-053>054-201200-
WASHINGTON METRO

CITY           SKY/WX    TMP DP  RH WIND       PRES   REMARKS
WASHINGTON NAT CLOUDY    40  37  89 E3        29.99S
DULLES         CLOUDY    35  33  92 CALM      29.96F
ANDREWS AFB    CLOUDY    36  34  92 CALM      29.96F
FT BELVOIR     CLOUDY    35  33  94 CALM      29.98S
QUANTICO       CLOUDY    39  38  96 CALM      29.99R
COLLEGE PARK*  PTCLDY    34  32  93 CALM      29.98F
LEESBURG*      CLOUDY    37  37 100 MISG      29.98R
GAITHERSBURG*  CLOUDY    34  30  86 E3        30.01R

$$

MDZ006>007-011-014-201200-
BALTIMORE METRO

CITY           SKY/WX    TMP DP  RH WIND       PRES   REMARKS
BWI AIRPORT    MOCLDY    33  33 100 CALM      29.99S
MD SCIENCE CTR   N/A     39  33  79 MISG      29.99S
MARTIN STATE   MOCLDY    36  36 100 CALM      30.01
ANNAPOLIS      CLOUDY    36  34  92 CALM      30.00R
FORT MEADE*    CLOUDY    32  30  93 CALM      30.01S

$$

MDZ012-015-019>023-201200-
MARYLAND EASTERN SHORE

CITY           SKY/WX    TMP DP  RH WIND       PRES   REMARKS
OCEAN CITY     PTCLDY    34  34 100 CALM      29.99F FOG
SALISBURY      CLOUDY    33  33 100 CALM      29.99R FOG
BAY BRIDGE AP* CLOUDY    36  34  93 CALM      30.00S FOG
CAMBRIDGE*     CLOUDY    32  32 100 CALM      30.00R
EASTON*        CLEAR     36  32  87 CALM      30.03S

$$

MDZ017>025-201200-
SOUTHERN MARYLAND

CITY           SKY/WX    TMP DP  RH WIND       PRES   REMARKS
PATUXENT RIVER CLOUDY    35  34  96 CALM      29.99S
ST INIGOES     MOCLDY    36  35  96 CALM      29.99S
LEONARDTOWN*   CLOUDY    36  34  93 CALM      30.01R

$$

MDZ003>005-201200-
NORTH CENTRAL MARYLAND

CITY           SKY/WX    TMP DP  RH WIND       PRES   REMARKS
FREDERICK*     CLOUDY    32  32 100 CALM      30.00F FOG
HAGERSTOWN APT PTCLDY    34  30  85 CALM      29.93S
WESTMINSTER*     N/A     36  34  93 SE3       29.96R

$$

MDZ501>502-201200-
WESTERN MARYLAND

CITY           SKY/WX    TMP DP  RH WIND       PRES   REMARKS
OAKLAND*         N/A     34  34 100 SE15      29.77F FOG     WCI  24
CUMBERLAND*    CLOUDY    34  34 100 CALM      29.92F

$$

VAZ025>031-201200-
SHENANDOAH VALLEY

CITY           SKY/WX    TMP DP  RH WIND       PRES   REMARKS
WINCHESTER*    CLOUDY    36  34  93 CALM      29.91S
FRONT ROYAL*   CLOUDY    36  36 100 CALM      29.89F
LURAY*         CLOUDY    39  39 100 CALM      29.89F
NEW MARKET*    CLOUDY    39  37  90 CALM      29.89F
STAUNTON*      CLOUDY    41  39  93 CALM      29.91S
WAYNESBORO*    CLOUDY    44  37  76 SE6       29.89R

$$

WVZ021-048>050-054>055-201200-
EASTERN WEST VIRGINIA PANHANDLE

CITY           SKY/WX    TMP DP  RH WIND       PRES   REMARKS
MARTINSBURG    CLOUDY    35  33  92 NW6       29.93S
PETERSBURG*    CLOUDY    37  36  96 CALM      29.89S

$$

VAZ036>039-050-201200-
CENTRAL FOOTHILLS

CITY           SKY/WX    TMP DP  RH WIND       PRES   REMARKS
CHARLOTTESVILL CLOUDY    43  38  82 N5        29.91F
CULPEPER*      CLOUDY    39  38  96 CALM      29.95F
ORANGE*          N/A     41  41 100 CALM      29.96S
GORDONSVILLE*  CLOUDY    40  39  96 CALM      29.93F
WARRENTON*     CLOUDY    38  35  89 NE5       29.94F

$$

VAZ055>057-201200-
NORTH AND CENTRAL PIEDMONT

CITY           SKY/WX    TMP DP  RH WIND       PRES   REMARKS
FREDERICKSBRG* CLOUDY    38  38 100 CALM      29.96F
STAFFORD*      CLOUDY    36  36 100 CALM      30.00F

$$

NCZ024-NYZ072-PAZ021-071-VAZ022-071-201200-
OTHER REGIONAL OBSERVATIONS

CITY           SKY/WX    TMP DP  RH WIND       PRES   REMARKS
NEW YORK CITY  CLOUDY    40  31  70 E3        30.02F
PHILADELPHIA   CLOUDY    33  31  92 CALM      30.01S
PITTSBURGH     LGT RAIN  37  35  92 SE3       29.74F
ROANOKE        CLOUDY    46  39  76 S6        29.91R
RICHMOND       CLOUDY    42  40  92 SE6       29.96F
RALEIGH        CLOUDY    48  43  82 E7        29.91F

$$

ANZ530>537-201200-
MARINE OBSERVATIONS

STATION/POSITION TIME  TEMP    WIND        PRES
                       AIR SEA DIR/SP/G
                 (UTC) (F)     (DEG/KT/KT) (MB)
THOMAS PT LIGHT  1100   38 39   30/  2/  2   N/A
BALT KEY BRIDGE  1042   37      70/  2/  2 1015.7F
COVE POINT       1042   40     180/  4/  4 1016.2R
LEWISETTA        1042   42 43  120/  4/  5 1015.2S
SOLOMONS ISLAND  1042   39 41   60/  1/  2   N/A
PINEY POINT      1048          120/  5/  6   N/A

$$




USA.gov is the U.S. government's official web portal to all federal, state and local government web resources and services.